Presure
155 162 184 159 151 159 184 162 185 195 187 210 207 199 196 192 197 191 190 197 196 194 223 196 188 174 163 158 201 202 190 196 174 178 191 202 194 190 203 205 207 186 177 184 186 189 201
145 155 187 175 168 170 173 232 221 174 148 188 149 140 147 143 144 182 168 164 165 170 185 195 191 156 163 181 188 177 172 196 198 194 185 162 161 166 173 174 194 200 189 180 192 188 175
184 195 201 209 204 202 167 193 163 177 172 142 218 205 203 202 194 200 207 210 204 190 183 184 180 175 173 147 191 189 178 192 181 191 193 193 187 195 213 209 171 208 213 176 175 201 185
166 173 167 156 140 160 163 189 139 121 186 193 191 132 211 212 202 200 196 200 193 181 175 182 184 181 178 186 184 184 189 186 188 183 193 187 192 191 189 192 197 190 199 205 207 213 208
171 167 169 168 165 162 163 164 160 168 172 169 179 181 169 158 170 185 196 174 172 190 188 185 180 176 184 177 184 183 182 177 189 188 183 186 186 180 180 180 194 193 193 207 181 199 198
165 163 161 172 160 156 163 158 163 164 160 158 163 170 159 183 164 161 144 151 150 158 183 182 184 185 183 183 187 186 184 169 185 196 189 184 174 184 194 192 189 195 190 192 203 207 213
167 163 172 174 164 156 154 161 162 160 156 151 152 151 161 150 185 155 191 163 162 181 188 181 175 178 182 184 179 179 180 181 197 186 179 185 186 189 187 186 195 185 191 193 210 205 200
134 136 143 166 150 178 170 159 170 159 146 156 161 209 160 174 168 190 157 157 187 186 179 178 163 157 185 170 192 198 201 198 183 181 182 180 189 188 187 192 197 199 203 204 198 195 192
151 161 147 160 155 166 174 150 177 169 183 176 151 160 182 179 145 169 159 190 176 193 175 194 152 176 211 204 172 175 185 186 186 185 185 183 181 187 199 206 197 194 189 194 197 198 213
169 153 163 171 160 158 167 142 144 150 165 155 180 157 151 145 189 143 149 144 143 189 153 185 183 195 179 213 210 200 165 211 208 203 200 201 201 194 193 200 201 201 197 203 222 193 196
153 151 151 162 135 164 162 154 151 159 159 182 155 160 171 173 153 160 136 178 173 140 164 181 164 179 206 187 180 138 233 194 212 177 199 196 196 175 208 202 194 208 189 191 216 206 203
162 170 150 168 157 160 153 139 164 152 161 137 162 156 176 151 158 156 162 160 164 177 182 191 187 185 188 186 185 193 197 174 178 209 218 205 191 187 206 196 194 198 189 191 205 206 220
152 155 161 168 162 144 143 150 145 162 160 140 149 151 145 158 149 157 158 143 160 176 138 139 177 168 163 170 174 198 196 186 196 193 216 182 207 206 189 200 204 208 212 208 214 212 211
156 156 158 165 145 150 159 166 153 155 154 161 149 140 170 146 165 179 160 164 153 164 172 181 131 182 189 187 193 157 193 150 197 183 203 211 208 185 211 205 211 168 197 218 217 210 204
133 155 166 159 162 133 150 162 151 151 143 149 163 163 160 160 155 169 152 157 171 159 150 147 174 190 187 188 188 180 190 197 187 197 195 211 206 201 198 207 200 209 198 211 204 205 214
172 162 147 166 154 149 161 156 151 165 165 174 143 157 165 157 139 163 155 151 170 132 167 171 164 183 174 187 180 192 191 195 187 189 217 205 205 206 203 212 224 192 201 186 190 215 209
149 163 163 154 165 168 163 135 163 156 146 159 159 144 150 163 177 152 173 167 157 165 146 179 173 183 176 176 169 192 187 191 179 206 204 205 210 204 193 219 206 197 195 203 189 186 214
165 142 149 167 169 161 151 168 166 164 150 159 142 164 132 170 156 165 176 173 170 157 176 175 150 155 167 175 185 193 188 185 175 197 195 207 206 194 212 211 196 194 209 186 192 209 222
152 137 157 169 157 169 171 171 144 146 160 145 154 149 167 164 155 159 157 173 143 184 164 170 148 170 147 152 167 188 183 188 176 189 180 204 216 212 227 207 195 195 205 211 207 218 215
162 154 164 173 162 150 152 161 156 162 157 159 156 160 160 167 163 169 166 147 138 191 150 159 145 147 139 172 172 178 184 198 162 187 190 208 214 207 217 202 174 185 215 186 217 212 225
166 162 160 148 141 170 156 148 159 137 157 160 151 151 157 166 148 166 133 157 170 180 142 183 163 176 168 178 172 179 188 160 189 161 194 211 215 202 195 176 196 221 201 209 210 227 225
168 154 139 171 146 168 169 157 151 132 167 164 161 127 168 163 124 159 183 176 171 167 180 152 173 166 188 170 176 181 191 194 195 214 197 223 203 203 203 203 207 189 221 213 218 216 268
160 161 168 192 169 167 159 154 168 158 155 132 166 132 159 174 142 138 164 163 169 163 155 183 166 177 175 178 182 181 193 161 205 211 217 228 207 206 190 206 208 215 200 234 217 266 366
177 158 174 167 141 168 128 123 145 161 162 144 164 147 141 167 155 167 168 161 178 129 170 172 181 175 189 182 182 198 205 197 211 212 222 206 187 198 200 216 221 205 237 219 275 456 442
157 172 167 154 168 179 154 143 157 160 152 137 176 169 159 187 160 131 161 144 145 144 190 185 152 192 186 197 186 193 201 222 219 208 229 190 192 225 223 213 232 220 225 303 447 435 419
169 171 167 170 172 172 161 166 187 174 188 163 158 153 159 177 163 163 157 142 143 180 181 179 153 192 203 203 196 196 206 195 222 230 216 192 198 196 205 229 243 226 423 447 420 420 403
174 166 170 158 173 181 173 162 167 170 180 171 171 182 171 128 174 167 156 183 169 168 189 185 164 182 199 181 187 199 202 219 237 228 215 213 195 207 222 226 252 384 422 437 424 388 398
170 176 155 161 172 163 162 163 163 151 173 153 163 163 162 178 176 168 140 169 176 180 192 203 209 209 212 195 212 198 213 239 213 198 198 232 204 206 257 269 412 445 435 421 407 381 382
173 177 178 178 174 170 181 182 184 180 166 159 170 154 162 159 170 177 192 215 185 196 215 183 200 170 204 202 201 235 221 210 220 186 212 218 202 265 286 434 440 430 418 406 381 370 365
Wind_Speed
15 10 12 12 14 14 18 13 24 29 27 31 32 35 35 34 33 33 33 34 30 28 19 22 27 29 29 31 25 24 29 26 34 32 27 21 27 29 22 23 26 39 42 42 43 43 42
23 18 5 8 10 10 14 14 16 18 18 19 20 21 20 21 22 24 25 25 26 27 22 22 25 29 31 33 29 33 35 28 29 29 32 39 42 41 41 42 29 31 41 46 42 45 52
10 8 4 6 6 4 13 7 14 13 15 20 10 16 18 19 21 21 17 12 14 24 29 29 32 33 35 32 31 31 38 34 38 35 34 35 35 34 31 34 46 34 37 50 50 39 51
4 5 4 15 26 16 14 12 21 26 9 10 12 22 11 8 15 16 18 17 20 27 30 29 29 32 35 33 35 36 38 39 38 39 38 40 41 41 40 40 41 40 42 42 41 40 41
5 8 7 7 8 9 12 14 15 15 14 15 15 16 20 26 23 19 13 23 27 20 24 29 34 38 37 41 39 41 43 43 45 44 46 47 47 47 45 45 47 47 46 50 53 46 47
11 12 15 14 14 17 16 19 18 17 20 22 23 23 23 19 25 28 33 38 39 34 28 32 35 37 40 42 43 45 47 46 49 47 51 51 51 52 50 53 54 56 54 54 57 55 52
16 12 9 11 15 20 20 18 21 22 23 26 27 29 26 30 19 32 19 36 35 33 32 36 42 45 45 48 48 49 51 52 52 52 56 55 57 57 58 59 60 58 58 59 59 59 54
35 34 30 18 29 16 20 22 22 24 30 28 30 30 32 30 31 25 35 38 35 36 41 43 45 46 51 49 52 49 48 49 54 55 58 59 62 62 65 68 67 66 64 64 64 64 60
30 21 27 29 24 24 26 27 17 24 20 20 31 29 21 25 41 31 40 28 36 33 43 41 52 47 46 50 52 52 54 55 57 59 59 62 64 69 69 64 66 68 69 70 70 70 63
29 32 27 30 22 26 27 35 35 32 31 30 33 35 39 42 43 45 46 51 51 37 50 44 45 45 50 37 39 46 55 48 49 54 57 60 62 67 70 66 65 66 72 69 57 73 76
30 32 30 29 42 31 26 33 34 30 32 35 38 33 35 40 39 44 46 49 53 54 51 48 47 52 41 44 49 46 38 43 40 63 51 51 53 66 55 62 72 63 78 79 57 68 77
37 32 35 32 36 34 35 42 37 35 35 41 42 40 45 46 43 42 44 44 48 53 54 54 56 56 44 44 46 47 43 60 58 52 54 49 58 63 59 68 71 69 71 75 73 77 63
41 39 38 37 40 40 40 34 37 40 38 44 43 43 40 43 45 49 49 54 56 61 60 60 60 57 51 58 60 56 57 54 61 59 64 71 59 59 69 67 68 72 72 70 65 69 67
45 42 44 47 36 39 44 44 40 40 40 47 39 45 52 46 53 56 54 61 56 65 66 65 48 61 63 57 58 60 67 73 74 61 72 66 67 75 71 68 79 83 74 72 73 73 76
48 46 55 51 50 47 45 52 45 45 49 43 56 57 50 54 52 59 53 62 72 62 59 64 70 74 68 71 63 70 68 76 76 79 74 81 70 68 69 74 79 69 79 78 85 85 83
49 58 46 58 50 49 57 52 48 55 54 58 44 52 62 57 53 66 60 55 76 53 74 71 71 77 74 79 67 83 82 84 78 78 76 81 83 82 75 78 77 81 82 92 96 93 94
51 60 65 58 54 60 61 48 63 59 50 63 63 51 54 68 72 58 76 75 66 68 63 83 79 82 78 77 66 87 91 90 72 90 95 89 88 85 84 82 78 85 92 90 94 97 109
75 48 50 72 67 65 56 67 69 68 55 69 52 72 57 75 61 71 75 82 83 66 83 86 63 71 75 85 87 92 95 93 81 100 99 96 96 89 89 81 91 96 90 99 105 107 115
54 49 66 74 69 75 74 66 53 57 73 58 68 66 82 81 66 78 63 86 59 91 74 83 64 83 70 74 72 100 99 106 88 105 95 107 102 98 91 86 94 96 97 100 104 109 108
82 67 77 84 78 64 66 71 62 78 72 75 78 83 85 88 85 92 80 57 66 92 67 80 70 71 64 89 90 98 108 113 83 109 105 111 105 96 93 97 78 101 108 95 115 111 126
86 81 79 55 53 80 69 62 80 54 77 85 68 73 78 94 66 95 65 68 90 96 66 104 84 100 87 105 94 108 116 75 109 86 113 113 98 100 100 92 107 112 108 113 115 132 122
90 67 62 94 54 80 85 79 76 61 91 97 91 52 100 101 49 77 100 102 91 87 103 73 100 88 113 96 107 114 121 115 121 114 117 112 96 98 97 110 108 99 118 116 121 118 144
80 84 88 100 92 92 76 70 83 83 75 46 96 58 87 102 55 68 99 96 101 87 81 110 88 114 110 111 116 112 123 84 122 126 111 111 98 107 112 110 109 113 112 134 118 143 107
100 84 106 77 55 80 50 45 65 77 86 71 94 68 57 103 80 82 106 82 112 58 105 108 115 106 123 115 114 129 122 124 123 122 120 97 107 114 112 117 116 113 134 117 143 53 52
83 106 99 66 95 114 58 69 63 79 77 63 106 101 83 103 91 58 88 63 69 74 114 118 73 124 116 125 116 116 120 121 126 113 116 108 105 121 121 121 125 123 126 134 50 47 47
107 105 103 111 114 104 85 86 118 99 109 85 75 74 75 113 82 82 72 65 74 117 113 110 76 124 131 129 119 126 133 113 128 113 107 112 114 113 122 129 133 127 66 47 52 42 44
114 99 110 83 118 121 112 91 100 90 111 95 90 114 94 52 119 99 77 126 92 78 111 124 92 106 132 105 113 129 135 134 114 118 108 116 113 120 126 130 136 98 57 46 42 50 39
98 111 95 93 112 90 90 99 78 59 109 85 89 95 81 122 121 101 62 100 111 109 120 128 128 128 128 130 136 113 134 114 109 113 108 122 120 120 142 138 73 47 42 43 40 42 37
108 109 107 111 118 114 129 131 130 121 105 84 106 51 78 69 105 131 129 106 121 133 111 104 135 86 136 133 126 118 116 106 114 103 121 119 119 143 145 53 45 41 38 36 37 38 33
Wind_Direction
237 243 258 253 259 272 273 277 280 282 284 283 281 282 283 289 291 290 294 297 298 301 319 308 304 299 296 295 309 307 304 306 294 293 301 292 273 272 290 279 275 271 266 270 271 271 269
261 268 280 281 287 284 288 286 289 282 285 293 290 296 287 288 287 294 309 304 301 300 305 308 305 292 297 303 303 299 297 309 312 302 287 284 285 285 279 275 275 278 271 269 271 266 266
21 24 37 63 37 11 292 345 296 310 307 287 317 315 315 311 311 309 311 313 319 306 308 309 307 305 303 295 307 305 297 304 294 300 302 300 290 296 304 297 275 296 294 271 272 275 267
282 5 305 277 277 297 301 21 296 297 331 351 343 295 331 324 313 313 302 301 303 308 309 306 305 302 303 309 304 303 308 306 305 303 303 300 300 296 294 293 294 286 292 295 291 293 287
308 278 303 297 290 302 314 318 305 330 348 344 352 338 327 312 318 327 314 322 316 317 314 314 305 302 308 302 307 304 303 301 306 304 300 301 300 297 295 291 298 296 295 301 284 290 286
281 280 283 296 291 273 306 289 318 320 307 313 322 324 318 325 322 308 299 303 304 307 307 307 304 306 307 304 302 302 303 303 304 303 301 300 298 300 304 300 298 297 295 294 296 296 296
280 265 284 266 274 278 284 296 304 306 304 301 302 302 311 304 334 305 328 312 312 316 306 306 314 308 300 298 304 303 300 300 302 299 299 302 302 303 300 297 296 293 294 293 296 291 290
280 280 280 278 285 300 272 285 289 291 296 301 307 353 302 319 318 345 305 308 319 311 312 311 306 309 297 295 296 297 304 302 298 299 300 301 303 302 301 299 295 295 296 295 292 291 290
274 280 272 299 263 288 306 287 301 305 317 306 296 307 333 331 302 321 314 333 322 327 322 324 314 313 304 296 301 300 297 298 297 298 298 298 299 297 296 296 295 295 294 294 293 293 292
292 272 293 299 276 271 302 287 287 286 305 284 315 301 303 301 332 306 307 307 308 325 313 320 316 314 311 334 322 307 312 303 300 296 294 294 295 296 295 293 294 292 291 290 296 292 291
281 267 272 292 282 302 294 264 279 288 295 314 284 294 316 320 295 309 307 323 318 309 317 318 310 306 327 302 301 296 326 311 317 301 297 296 297 301 303 293 291 293 293 293 295 286 287
284 281 274 288 285 290 278 277 306 284 301 290 309 308 312 304 306 308 316 314 318 321 321 318 316 314 306 306 297 336 324 317 299 322 323 303 296 304 300 292 293 299 292 292 293 292 292
273 280 285 280 285 286 275 279 279 299 300 281 294 297 290 308 299 309 310 299 316 314 303 305 315 309 305 304 299 331 334 313 322 310 328 291 315 315 304 302 303 301 300 296 300 296 300
282 278 280 280 264 279 291 291 285 293 290 300 280 287 305 292 310 309 307 314 312 318 314 311 307 316 318 315 319 303 329 310 325 300 328 325 318 299 316 308 310 306 297 308 305 297 290
273 282 273 282 280 275 286 290 285 286 294 281 300 303 301 304 308 306 305 311 313 314 307 309 314 320 319 319 320 322 330 326 320 325 319 327 320 313 311 309 306 302 294 304 297 297 303
263 271 274 271 284 277 282 287 289 291 291 293 280 293 304 305 292 307 306 303 310 301 315 315 316 318 319 322 318 326 329 326 319 319 321 324 322 318 309 308 308 297 300 298 303 311 305
277 262 270 277 268 273 275 278 285 285 289 294 295 287 295 304 303 303 304 310 309 306 303 311 317 317 322 322 308 327 326 326 310 323 324 321 321 315 304 307 303 299 298 304 303 303 311
259 275 283 268 269 280 282 277 282 287 292 295 288 298 288 300 306 304 301 306 307 305 308 313 305 313 320 321 327 323 324 322 311 322 324 322 316 309 312 308 303 305 311 305 305 309 311
271 268 279 266 283 275 277 276 286 290 292 290 295 294 300 301 303 307 301 307 295 306 310 309 309 317 308 314 313 321 323 321 312 320 314 320 321 316 316 308 304 304 310 310 306 309 307
272 269 274 267 275 282 284 284 278 286 288 292 300 298 300 300 302 304 305 290 292 306 295 302 301 305 304 323 321 321 321 319 308 318 317 319 317 311 313 307 309 308 317 307 310 307 310
269 276 274 280 275 272 283 284 287 288 289 292 293 294 298 302 294 305 289 298 309 308 296 311 303 317 318 318 317 318 318 310 319 309 317 318 311 307 304 311 305 316 308 308 308 311 309
274 282 275 270 274 271 275 286 291 282 285 287 295 280 295 301 295 297 302 306 307 310 310 296 315 314 313 318 317 318 315 317 319 316 317 314 304 305 306 309 311 313 313 309 310 310 312
277 284 269 268 275 280 284 287 281 281 287 287 292 283 303 296 280 285 307 307 310 302 300 307 312 311 313 313 314 317 315 308 317 317 315 317 305 304 304 308 309 311 309 311 311 312 306
273 282 282 265 267 287 277 275 277 284 290 287 289 291 292 299 294 290 303 302 303 298 308 310 306 309 308 312 313 312 315 315 316 316 315 307 305 304 306 311 311 311 311 311 312 301 298
280 281 284 274 284 286 264 279 282 292 283 284 290 294 295 289 301 289 299 290 294 298 302 304 301 307 310 309 312 313 313 313 315 315 315 302 310 316 314 309 312 310 311 312 304 302 302
273 277 281 282 284 285 280 291 285 284 288 294 285 291 293 301 293 303 294 290 296 306 305 305 303 307 309 309 311 314 314 313 314 315 312 302 303 308 309 313 313 311 307 305 308 308 297
269 270 274 276 278 280 285 287 288 288 288 291 292 295 294 296 301 304 294 304 307 298 306 306 304 311 308 307 311 313 314 313 311 314 309 307 307 309 312 311 312 310 309 307 308 305 303
268 269 271 272 278 281 285 285 282 284 291 291 293 294 297 296 299 295 291 304 304 300 305 303 303 304 307 311 309 310 312 312 308 302 311 315 308 311 314 313 311 307 308 306 305 305 305
268 268 272 275 276 280 276 277 280 282 289 291 295 287 295 299 299 299 296 296 300 300 302 306 303 303 306 308 308 309 309 306 312 312 305 311 310 313 313 308 306 306 304 304 301 302 304